Regional Weather Roundup
Issued by NWS Grand Forks, ND

Home | Current Version | Previous Version | Text Only | Print | Product List | Glossary On
Versions: 1 2 3 4 5 6 7 8 9 10 11 12 13 14 15 16 17 18 19 20 21 22 23 24 25 26 27 28 29 30 31 32 33 34 35 36 37 38 39 40 41 42 43 44 45 46 47 48 49 50
000
ASUS43 KFGF 260010
RWRFGF
PRAIRIE TO PINES  WEATHER ROUNDUP
NATIONAL WEATHER SERVICE EASTERN NORTH DAKOTA/GRAND FORKS ND
700 PM CDT SUN SEP 25 2016

 **SATELLITE DATA USED TO AUGMENT SKY COVER AT AUTOMATED STATIONS**
 *****  WEATHER ACROSS EASTERN NORTH DAKOTA  *****

CITY           SKY/WX    TMP DP  RH WIND       PRES   REMARKS
GRAND FORKS    LGT RAIN  53  48  83 NW12      29.91S
6HR MIN TEMP:  53; 6HR MAX TEMP:  58; 6HR PCP:  0.07;

GRAND FRKS AFB CLOUDY    55  46  71 NW12      29.92R
DEVILS LAKE    CLOUDY    59  41  51 NW20      29.98R
6HR MIN TEMP:  53; 6HR MAX TEMP:  60;

FARGO          CLOUDY    58  43  57 NW15      29.95R
WAHPETON ARPT  CLOUDY    61  34  36 NW22G30   29.97R
$$

 ***** WEATHER ACROSS CENTRAL AND WESTERN NORTH DAKOTA  *****

CITY           SKY/WX    TMP DP  RH WIND       PRES   REMARKS
BISMARCK       CLEAR     62  32  32 NW16G32   30.13R
6HR MIN TEMP:  61; 6HR MAX TEMP:  65;

MINOT          CLEAR     60  34  37 W28G38    30.08R
6HR MIN TEMP:  60; 6HR MAX TEMP:  64;

JAMESTOWN      MOCLDY    60  35  39 NW23G30   30.02R
6HR MIN TEMP:  57; 6HR MAX TEMP:  63;

MINOT AFB      CLEAR     60  34  38 NW23G32   30.06R
GARRISON         N/A     59  33  37 NW21G32   30.11R
WILLISTON      CLEAR     62  31  31 NW17      30.18S
6HR MIN TEMP:  61; 6HR MAX TEMP:  65;

DICKINSON      CLEAR     58  33  39 NW18G26   30.19R
6HR MIN TEMP:  56; 6HR MAX TEMP:  62;

HETTINGER      CLEAR     60  33  36 NW20G29   30.24R
6HR MIN TEMP:  58; 6HR MAX TEMP:  64;

$$

 *****  OTHER AIRPORT OBSERVATIONS IN OUR AREA  *****

CITY           SKY/WX    TMP DP  RH WIND       PRES   REMARKS
WALHALLA       FAIR      54  50  87 NW13G21   29.89R
GRAFTON AIRPOR DRIZZLE   52  52 100 W16       29.91S
VALLEY CITY AR LGT RAIN  59  37  44 NW22G31   30.01R
CANDO          FAIR      59  36  41 NW20G31   30.00R
CAVALIER APRT  CLOUDY    54  48  82 W12G18    29.89R
GWINNER        FAIR      61  36  39 W16G25    30.02R
SHEYENNE NWR     N/A     62  35  37 NW14      29.95
ROLLA          FAIR      55  36  47 NW23G30   29.99R
 ***** THE ABOVE OBSERVATIONS ARE NON NWS ARE NOT QUALITY
       CONTROLLED AND MAY MIS-REPORT RAIN FOR SNOW...
$$

  *****  WEATHER ACROSS NORTHERN MINNESOTA  *****

CITY           SKY/WX    TMP DP  RH WIND       PRES   REMARKS
FLAG ISLAND    LGT RAIN  54  52  94 NW22      29.66R
WARROAD        DRIZZLE   52  48  87 W13G20    29.73R
ROSEAU         LGT RAIN  52  46  82 W13G21    29.76R
HALLOCK        RAIN      52  50  93 W22G30    29.85R
THF RVR FALLS  LGT RAIN  50  48  93 W25G35    29.86R
6HR MIN TEMP:  50; 6HR MAX TEMP:  54; 6HR PCP:  0.10;

BAUDETTE       LGT RAIN  53  51  93 W12G24    29.70R FOG
6HR MIN TEMP:  53; 6HR MAX TEMP:  60; 6HR PCP: TRACE;

WASKISH        LGT RAIN  54  52  94 W21G31    29.75R
CROOKSTON      HVY RAIN  50  48  93 NW24G37   29.91R
GREENBUSH NDAW   N/A     50  48  93 W21         N/A
$$
  *****  WEATHER ACROSS CENTRAL AND WEST MINNESOTA  *****

CITY           SKY/WX    TMP DP  RH WIND       PRES   REMARKS
FOSSTON        LGT RAIN  48  46  93 W23G32    29.88R
BEMIDJI        DRIZZLE   49  48  95 W17G26    29.83R
PARK RAPIDS    CLOUDY    52  43  71 W22G39    29.89R
6HR MIN TEMP:  52; 6HR MAX TEMP:  61; 6HR PCP:  0.01;

ELBOW LAKE     MOCLDY    58  42  56 NW12      29.98R
WADENA         CLOUDY    54  43  66 NW20G35   29.93R
DETROIT LAKES  LGT RAIN  52  45  76 NW15G23   29.95R
MOORHEAD       DRIZZLE   57  43  58 NW16      29.97R
FERGUS FALLS   PTCLDY    55  45  67 N7        29.98R
MORRIS MN      PTCLDY    61  39  44 NW22G29   29.99R
STAPLES        CLOUDY    54  43  66 NW21G33   29.92R
$$
  *****  WEATHER ELSEWHERE ACROSS MINNESOTA  *****

CITY           SKY/WX    TMP DP  RH WIND       PRES   REMARKS
DULUTH         MOCLDY    57  53  86 W15       29.78S
6HR MIN TEMP:  57; 6HR MAX TEMP:  69; 6HR PCP: TRACE;

INTRNTL FALLS  LGT RAIN  55  53  93 W8        29.68R
6HR MIN TEMP:  55; 6HR MAX TEMP:  68; 6HR PCP: TRACE;

ELY            CLOUDY    57  52  82 SW9       29.73R
CLOQUET        CLOUDY    55  52  88 W9        29.80R
WHEATON        NOT AVBL
BRAINERD       CLOUDY    56  46  69 W14G30    29.89R
6HR MIN TEMP:  55; 6HR MAX TEMP:  60; 6HR PCP: TRACE;

HIBBING        CLOUDY    54  51  90 SW8       29.76R
6HR MIN TEMP:  54; 6HR MAX TEMP:  65; 6HR PCP:  0.01;

ALEXANDRIA     MOCLDY    54  48  80 NW10      29.98R
6HR MIN TEMP:  54; 6HR MAX TEMP:  60; 6HR PCP:  0.02;

SAINT CLOUD    PTCLDY    58  48  69 W15       29.93R
6HR MIN TEMP:  57; 6HR MAX TEMP:  63; 6HR PCP: TRACE;

MINNEAPOLIS    CLOUDY    61  50  67 W16G23    29.93R
6HR MIN TEMP:  60; 6HR MAX TEMP:  66; 6HR PCP:  0.02;

$$

  *****  WEATHER ACROSS SOUTH DAKOTA  *****

CITY           SKY/WX    TMP DP  RH WIND       PRES   REMARKS
SIOUX FALLS    PTCLDY    62  41  46 NW12      30.11R
6HR MIN TEMP:  59; 6HR MAX TEMP:  68;

BROOKINGS      CLEAR     58  39  49 NW13      30.09R
WATERTOWN      CLEAR     60  37  42 NW20G29   30.07R
6HR MIN TEMP:  57; 6HR MAX TEMP:  64;

HURON          CLEAR     63  32  31 NW17G32   30.12R
6HR MIN TEMP:  63; 6HR MAX TEMP:  69;

SISSETON         N/A     60  36  40 NW17      30.01R
ABERDEEN       CLEAR     62  33  33 NW18G29   30.10R
6HR MIN TEMP:  62; 6HR MAX TEMP:  68; 6HR PCP: TRACE;

MITCHELL       CLEAR     65  31  28 NW15G25   30.15R
PIERRE         CLEAR     64  27  24 NW17G29   30.18R
6HR MIN TEMP:  64; 6HR MAX TEMP:  68;

MOBRIDGE       CLEAR     64  29  26 NW22G30   30.14R
RAPID CITY     CLEAR     62  31  31 N17       30.30S
6HR MIN TEMP:  61; 6HR MAX TEMP:  66;

$$

  *****  SOME WEATHER IN NEARBY STATES *****

CITY           SKY/WX    TMP DP  RH WIND       PRES   REMARKS
GLASGOW MT     CLEAR     65  37  35 W16G28    30.22S
6HR MIN TEMP:  61; 6HR MAX TEMP:  67;

GREAT FALLS MT SUNNY     68  38  33 W15       30.27R
6HR MIN TEMP:  59; 6HR MAX TEMP:  70;

CHEYENNE WY    CLEAR     62  28  27 N10       30.39S
6HR MIN TEMP:  56; 6HR MAX TEMP:  64;

SCOTTSBLUFF NE CLEAR     65  36  34 NW12      30.35R
6HR MIN TEMP:  61; 6HR MAX TEMP:  68;

OMAHA NE       PTCLDY    66  47  50 NW10      30.14R
6HR MIN TEMP:  66; 6HR MAX TEMP:  73;

DES MOINES IA  MOCLDY    65  48  54 NW16G25   30.09R
6HR MIN TEMP:  65; 6HR MAX TEMP:  70;

DAVENPORT IA   CLOUDY    68  55  63 W15G23    30.00R
6HR MIN TEMP:  68; 6HR MAX TEMP:  86;

CHICAGO IL     CLOUDY    76  69  79 CALM      29.90R
6HR MIN TEMP:  76; 6HR MAX TEMP:  85; 6HR PCP:  0.01;

EAU CLAIRE WI  LGT RAIN  61  53  75 W16G24    29.89R
6HR MIN TEMP:  61; 6HR MAX TEMP:  69; 6HR PCP: TRACE;

LA CROSSE WI   CLOUDY    67  53  61 W13       29.92R
6HR MIN TEMP:  67; 6HR MAX TEMP:  78; 6HR PCP: TRACE;

$$

  *****  SOME NATIONAL WEATHER *****

CITY           SKY/WX    TMP DP  RH WIND       PRES   REMARKS
LA GUARDIA NY  PTCLDY    68  38  33 NE3       30.14R
6HR MIN TEMP:  67; 6HR MAX TEMP:  71;

RALEIGH NC     CLOUDY    71  65  81 E5        30.13R
6HR MIN TEMP:  71; 6HR MAX TEMP:  73;

ATLANTA GA     PTCLDY    85  63  47 S5        30.04R
6HR MIN TEMP:  85; 6HR MAX TEMP:  92;

NEW ORLEANS LA MOCLDY    87  69  54 S6        29.98R HX  91
6HR MIN TEMP:  87; 6HR MAX TEMP:  94;

OKLAHOMA CITY  CLOUDY    65  54  67 N14       30.17R
6HR MIN TEMP:  65; 6HR MAX TEMP:  73; 6HR PCP: TRACE;

ALBUQUERQUE NM PTSUNNY   72  35  25 E22       30.31R
6HR MIN TEMP:  69; 6HR MAX TEMP:  74;

SALT LAKE CITY SUNNY     66  42  41 NW13      30.41F
6HR MIN TEMP:  60; 6HR MAX TEMP:  68;

LOS ANGELES CA SUNNY     81  54  39 W13       29.89F
6HR MIN TEMP:  81; 6HR MAX TEMP:  92;

BOISE ID       SUNNY     74  30  19 W8        30.37F
6HR MIN TEMP:  64; 6HR MC1F1C2F2C3F3C4F4C5F5C6F6C7F7C8F8C9F9CaFaCbFbCcFcCd!


USA.gov is the U.S. government's official web portal to all federal, state and local government web resources and services.